Terminal Aerodrome Forecast
Issued by NWS

Home | Current Version | Previous Version | Text Only | Print | Product List | Glossary On
Versions: 1 2 3 4 5 6 7 8 9 10 11 12 13 14 15
000
FTAK31 PAJN 250500
TAFAYA
TAF
PAYA 250534Z 2506/2606 VRB03KT P6SM OVC025
     FM250900 VRB05KT P6SM VCSH OVC015
     FM251600 VRB05KT P6SM SCT015 OVC021
     FM251900 28005KT P6SM OVC025
     FM260000 VRB04KT P6SM FEW025 BKN040
      AMD LTD TO CLD VIS AND WIND 2506/2510=

USA.gov is the U.S. government's official web portal to all federal, state and local government web resources and services.